Weather History for Sheridan, WY

Change the Weather History Date:

Sunday, February 10, 2013

  Actual Average Record
Temperature  
Mean Temperature 21 °F 25 °F  
Max Temperature 29 °F 38 °F 73 °F (1951)
Min Temperature 13 °F 13 °F -24 °F (1981)
Degree Days  
Heating Degree Days 44 40  
Month to date heating degree days 364 400  
Since 1 July heating degree days 4559 4860  
Cooling Degree Days 0 0  
Month to date cooling degree days 0 0  
Year to date cooling degree days 0 0  
Moisture  
Dew Point 19 °F    
Average Humidity 80    
Maximum Humidity 92    
Minimum Humidity 68    
Precipitation  
Precipitation T in 0.02 in 0.36 in (2000)
Month to date precipitation 0.09 0.19  
Year to date precipitation 1.05 0.75  
Sea Level Pressure  
Sea Level Pressure 30.00 in    
Wind  
Wind Speed 18 mph (NW)    
Max Wind Speed 32 mph    
Max Gust Speed 37 mph    
Visibility 4 miles    
Events Fog , Snow    
T = Trace of Precipitation, MM = Missing Value Source: NWS Daily Summary

Daily Weather History Graph

Daily Weather History Graph

Search for Another Location

Airport:

Trip Planner

Search our weather history database for the weather conditions in past years. The results will help you decide how hot, cold, wet, or windy it might be!

Date:

Astronomy

Feb. 10, 2013 Rise Set
Actual Time 7:15 AM MST 5:29 PM MST
Civil Twilight 6:44 AM MST 6:00 PM MST
Nautical Twilight 6:10 AM MST 6:34 PM MST
Astronomical Twilight 5:36 AM MST 7:08 PM MST
Moon 7:03 AM MST (2/10) 6:28 PM MST (2/10)
Length of Visible Light 11h 15m
Length of Day
10h 14m
New Moon, 0% of the Moon is Illuminated
Feb 10
New Moon
Feb 17
First Quarter
Feb 25
Full
Mar 4
Last Quarter
Mar 11
New

Hourly Weather History & Observations

Time (MST) Temp. Windchill Dew Point Humidity Pressure Visibility Wind Dir Wind Speed Gust Speed Precip Events Conditions
12:30 AM 28.4 °F 17.5 °F 23.0 °F 80% 29.80 in 10.0 mi WNW 13.8 mph - N/A   Overcast
12:40 AM 28.4 °F 16.2 °F 24.8 °F 86% 29.81 in 9.0 mi NW 17.3 mph - 0.00 in Snow Light Snow
12:53 AM 28.0 °F 15.3 °F 25.0 °F 88% 29.89 in 6.0 mi NW 18.4 mph - 0.00 in Snow Light Snow
1:17 AM 28.4 °F 16.2 °F 24.8 °F 86% 29.81 in 6.0 mi NW 17.3 mph - 0.00 in Snow Light Snow
1:32 AM 28.4 °F 16.2 °F 24.8 °F 86% 29.81 in 1.8 mi NW 17.3 mph - 0.00 in Snow Light Snow
1:46 AM 28.4 °F 16.2 °F 24.8 °F 86% 29.81 in 2.5 mi NW 17.3 mph - 0.00 in Snow Light Snow
1:53 AM 27.0 °F 15.6 °F 25.0 °F 92% 29.91 in 3.0 mi NW 13.8 mph - 0.00 in Snow Light Snow
2:35 AM 26.6 °F 15.2 °F 23.0 °F 86% 29.82 in 9.0 mi WNW 13.8 mph - 0.00 in Snow Light Snow
2:53 AM 27.0 °F 16.1 °F 23.0 °F 85% 29.91 in 9.0 mi WNW 12.7 mph - 0.00 in   Overcast
3:16 AM 26.6 °F 13.8 °F 24.8 °F 93% 29.82 in 9.0 mi WNW 17.3 mph - 0.00 in Snow Light Snow
3:53 AM 27.0 °F 13.5 °F 24.1 °F 89% 29.92 in 10.0 mi NW 19.6 mph - 0.00 in   Overcast
4:53 AM 26.1 °F 13.1 °F 23.0 °F 88% 29.96 in 8.0 mi NW 17.3 mph - 0.00 in   Overcast
5:53 AM 26.1 °F 11.0 °F 23.0 °F 88% 29.98 in 4.0 mi NW 24.2 mph - 0.00 in   Overcast
6:53 AM 25.0 °F 9.2 °F 21.9 °F 88% 30.00 in 2.5 mi WNW 25.3 mph 31.1 mph 0.00 in Snow Light Snow
7:03 AM 24.8 °F 10.0 °F 21.2 °F 86% 29.89 in 4.0 mi NW 21.9 mph - 0.00 in Snow Light Snow
7:20 AM 24.8 °F 8.7 °F 21.2 °F 86% 29.89 in 2.5 mi NW 26.5 mph 33.4 mph 0.00 in Snow Light Snow
7:33 AM 24.8 °F 10.0 °F 21.2 °F 86% 29.90 in 3.0 mi NW 21.9 mph 32.2 mph 0.00 in   Overcast
7:53 AM 25.0 °F 11.7 °F 21.0 °F 85% 30.03 in 7.0 mi NW 17.3 mph - 0.00 in   Overcast
8:16 AM 24.8 °F 11.5 °F 21.2 °F 86% 29.92 in 1.8 mi NW 17.3 mph - 0.00 in Snow Light Snow
8:21 AM 24.8 °F 11.1 °F 21.2 °F 86% 29.92 in 2.0 mi NW 18.4 mph - 0.00 in Snow Light Snow
8:29 AM 24.8 °F 11.1 °F 21.2 °F 86% 29.92 in 6.0 mi NW 18.4 mph - 0.00 in Snow Light Snow
8:38 AM 24.8 °F 10.7 °F 21.2 °F 86% 29.92 in 4.0 mi NW 19.6 mph - 0.00 in Snow Light Snow
8:53 AM 25.0 °F 11.3 °F 21.0 °F 85% 30.04 in 4.0 mi NW 18.4 mph - 0.00 in Snow Light Snow
9:01 AM 24.8 °F 10.7 °F 21.2 °F 86% 29.93 in 6.0 mi NW 19.6 mph - 0.00 in Snow Light Snow
9:09 AM 24.8 °F 11.1 °F 21.2 °F 86% 29.93 in 4.0 mi NW 18.4 mph 25.3 mph 0.00 in Snow Light Snow
9:16 AM 24.8 °F 9.3 °F 21.2 °F 86% 29.93 in 1.2 mi NW 24.2 mph 28.8 mph 0.00 in Snow Light Snow
9:25 AM 24.8 °F 10.7 °F 21.2 °F 86% 29.93 in 0.8 mi NW 19.6 mph - 0.00 in Snow Light Snow
9:29 AM 24.8 °F 8.7 °F 21.2 °F 86% 29.94 in 0.5 mi NW 26.5 mph 31.1 mph 0.00 in Fog , Snow Snow
9:40 AM 24.8 °F 9.6 °F 19.4 °F 80% 29.95 in 0.8 mi NW 23.0 mph 32.2 mph 0.00 in Snow Light Snow
9:43 AM 24.8 °F 8.7 °F 19.4 °F 80% 29.95 in 1.0 mi NW 26.5 mph - 0.00 in Snow Light Snow
9:48 AM 24.8 °F 9.3 °F 19.4 °F 80% 29.95 in 0.8 mi NW 24.2 mph 32.2 mph 0.00 in Snow Light Snow
9:53 AM 23.0 °F 5.4 °F 19.0 °F 85% 30.08 in 0.8 mi NW 29.9 mph 35.7 mph 0.00 in Snow Light Snow
10:02 AM 23.0 °F 7.2 °F 19.4 °F 86% 29.96 in 1.0 mi NW 23.0 mph - 0.00 in Snow Light Snow
10:12 AM 23.0 °F 6.3 °F 17.6 °F 80% 29.97 in 1.2 mi NW 26.5 mph 35.7 mph 0.00 in Snow Light Snow
10:23 AM 23.0 °F 6.9 °F 19.4 °F 86% 29.97 in 0.8 mi NNW 24.2 mph - 0.00 in Snow Light Snow
10:27 AM 23.0 °F 6.3 °F 19.4 °F 86% 29.97 in 1.0 mi NW 26.5 mph - 0.00 in Snow Light Snow
10:33 AM 21.2 °F 3.0 °F 17.6 °F 86% 29.97 in 0.8 mi NW 29.9 mph 36.8 mph 0.00 in Snow Light Snow
10:38 AM 21.2 °F 4.2 °F 17.6 °F 86% 29.97 in 0.2 mi NW 25.3 mph 36.8 mph 0.00 in Fog , Snow Snow
10:46 AM 21.2 °F 2.4 °F 17.6 °F 86% 29.98 in 0.5 mi NW 32.2 mph 36.8 mph 0.00 in Fog , Snow Light Snow
10:53 AM 21.9 °F 4.5 °F 17.1 °F 82% 30.11 in 0.5 mi NW 27.6 mph 36.8 mph 0.00 in Snow Snow
11:02 AM 21.2 °F 4.5 °F 17.6 °F 86% 29.98 in 0.8 mi NW 24.2 mph - 0.00 in Snow Light Snow
11:09 AM 21.2 °F 5.6 °F 17.6 °F 86% 29.98 in 1.5 mi NW 20.7 mph - 0.00 in Snow Light Snow
11:14 AM 21.2 °F 4.5 °F 17.6 °F 86% 29.98 in 3.0 mi NW 24.2 mph - 0.00 in   Haze
11:53 AM 23.0 °F 6.9 °F 17.1 °F 78% 30.11 in 2.0 mi NW 24.2 mph - 0.00 in Snow Light Snow
12:05 PM 23.0 °F 6.3 °F 17.6 °F 80% 29.98 in 1.5 mi NW 26.5 mph 32.2 mph 0.00 in Snow Light Snow
12:17 PM 23.0 °F 6.6 °F 17.6 °F 80% 29.97 in 2.5 mi NW 25.3 mph 33.4 mph 0.00 in Snow Light Snow
12:35 PM 23.0 °F 6.0 °F 15.8 °F 74% 29.97 in 3.0 mi NW 27.6 mph 34.5 mph 0.00 in   Haze
12:53 PM 24.1 °F 8.3 °F 17.1 °F 75% 30.09 in 4.0 mi NW 24.2 mph 32.2 mph 0.00 in Snow Light Snow
1:07 PM 24.8 °F 9.0 °F 17.6 °F 74% 29.97 in 7.0 mi NW 25.3 mph 31.1 mph N/A   Overcast
1:53 PM 24.1 °F 8.3 °F 16.0 °F 71% 30.09 in 8.0 mi NW 24.2 mph 33.4 mph N/A   Overcast
2:53 PM 24.1 °F 9.8 °F 16.0 °F 71% 30.10 in 10.0 mi NW 19.6 mph - N/A   Scattered Clouds
3:53 PM 23.0 °F 8.7 °F 15.1 °F 72% 30.13 in 10.0 mi NW 18.4 mph - N/A   Mostly Cloudy
4:41 PM 21.2 °F 6.0 °F 15.8 °F 80% 30.01 in 2.5 mi NNW 19.6 mph - 0.00 in Snow Light Snow
4:49 PM 21.2 °F 6.8 °F 17.6 °F 86% 30.01 in 1.0 mi NNW 17.3 mph - 0.00 in Snow Light Snow
4:53 PM 19.9 °F 6.2 °F 17.1 °F 89% 30.16 in 1.0 mi NNW 15.0 mph - 0.00 in Snow Light Snow
5:29 PM 19.4 °F 6.6 °F 15.8 °F 86% 30.02 in 3.0 mi NW 12.7 mph - 0.00 in Snow Light Snow
5:53 PM 19.0 °F 6.1 °F 16.0 °F 88% 30.17 in 4.0 mi NW 12.7 mph - 0.00 in Snow Light Snow
6:00 PM 19.4 °F 6.0 °F 15.8 °F 86% 30.02 in 4.0 mi NW 13.8 mph - 0.00 in Snow Light Snow
6:53 PM 18.0 °F 3.6 °F 14.0 °F 84% 30.19 in 9.0 mi NW 15.0 mph - 0.00 in   Overcast
7:53 PM 18.0 °F 5.4 °F 15.1 °F 88% 30.21 in 3.0 mi NW 11.5 mph - 0.00 in Snow Light Snow
8:53 PM 18.0 °F 4.2 °F 12.9 °F 81% 30.23 in 6.0 mi NW 13.8 mph - 0.00 in Snow Light Snow
9:53 PM 17.1 °F 5.8 °F 12.9 °F 84% 30.25 in 10.0 mi NW 9.2 mph - 0.00 in   Overcast
10:53 PM 16.0 °F 6.3 °F 12.0 °F 84% 30.24 in 10.0 mi West 6.9 mph - N/A   Overcast
11:53 PM 12.9 °F 0.7 °F 9.0 °F 84% 30.25 in 10.0 mi WNW 9.2 mph - N/A   Scattered Clouds